Location: Newark
(47.5833°N, 8.1500°E)
Time: 18:37:07
(UTC+00:00)

Tiros 1 despin weight - Pass Details

Date: 31 October 2020
Orbit: 593 x 642 km, 48.2° (Epoch: 24 November)

Event Time Altitude Azimuth Distance (km) Brightness Sun altitude
Rises 00:57:27 0° 263° (W) 2,862 - -50.0°
Reaches altitude 10° 00:59:46 10° 264° (W) 1,951 - -49.7°
Maximum altitude 01:04:15 85° 353° (N) 607 - -49.2°
Drops below altitude 10° 01:08:41 10° 83° (E) 1,931 - -48.7°
Sets 01:10:58 0° 84° (E) 2,830 - -48.4°
